Location: Freemans Gardens
(41.6414°N, 83.6077°W)
Time: 02:46:09
(UTC+00:00)

CZ-4B R/B - Pass Details

Date: 29 October 2020
Orbit: 388 x 462 km, 97.6° (Epoch: 26 November)

Event Time Altitude Azimuth Distance (km) Brightness Sun altitude
Rises 23:21:29 0° 9° (N) 2,375 4.9 -9.8°
Reaches altitude 10° 23:23:31 10° 6° (N) 1,493 3.9 -10.2°
Maximum altitude 23:26:40 62° 285° (WNW) 461 1.7 -10.7°
Drops below altitude 10° 23:29:43 10° 203° (SSW) 1,445 4.4 -11.3°
Sets 23:31:40 0° 200° (SSW) 2,289 5.4 -11.7°
